Odiham, United Kingdom

8:06 PM BST on September 30, 2016 (GMT +0100)
Odiham Air Base

Weather History for EGVO - March, 2014

Change the Weather History Date:

Friday, March 21, 2014

  Actual Average (EGUB) Record (EGUB)
Temperature  
Mean Temperature 47 °F -  
Max Temperature 53 °F 50 °F 59 °F (2002)
Min Temperature 41 °F 36 °F 23 °F (2007)
Degree Days  
Heating Degree Days 18    
Moisture  
Dew Point 37 °F    
Average Humidity 71    
Maximum Humidity 93    
Minimum Humidity 31    
Precipitation  
Precipitation 0.04 in - - ()
Sea Level Pressure  
Sea Level Pressure 29.69 in    
Wind  
Wind Speed 12 mph ()    
Max Wind Speed 26 mph    
Max Gust Speed 39 mph    
Visibility 11.2 miles    
Events Rain , Hail    
Averages and records for this station are not official NWS values.
T = Trace of Precipitation, MM = Missing Value Source: Averaged Metar Reports

Daily Weather History Graph

Daily Weather History Graph

Search for Another Location

Airport or City:

Trip Planner

Search our weather history database for the weather conditions in past years. The results will help you decide how hot, cold, wet, or windy it might be!

Date:

Astronomy

Mar. 21, 2014 Rise Set
Actual Time 6:04 AM GMT 6:18 PM GMT
Civil Twilight 5:31 AM GMT 6:51 PM GMT
Nautical Twilight 4:52 AM GMT 7:30 PM GMT
Astronomical Twilight 4:11 AM GMT 8:11 PM GMT
Moon 11:55 PM GMT (3/21) 8:15 AM GMT (3/21)
Length of Visible Light 13h 19m
Length of Day
12h 13m
Waning Gibbous, 77% of the Moon is Illuminated
Mar 21
Waning Gibbous
Mar 24
Last Quarter
Mar 30
New
Apr 7
First Quarter
Apr 15
Full

Hourly Weather History & Observations

Time (GMT) Temp. Windchill Dew Point Humidity Pressure Visibility Wind Dir Wind Speed Gust Speed Precip Events Conditions
12:00 AM 45 °F - 42 °F 87% 29.70 in 16 mi SSW 10.4 mph - - Rain Light Rain
12:50 AM 44.6 °F 39.2 °F 42.8 °F 93% 29.68 in 6.2 mi SSW 10.4 mph - N/A   Mostly Cloudy
1:00 AM 44 °F - 42 °F 89% 29.70 in 19 mi SSW 10.4 mph - - Rain Light Rain Showers
1:50 AM 44.6 °F 38.8 °F 41.0 °F 87% 29.68 in - SSW 11.5 mph - N/A   Clear
2:00 AM 44 °F - 42 °F 89% 29.70 in 19 mi SSW 11.5 mph - -   Overcast
2:50 AM 42.8 °F 37.5 °F 41.0 °F 93% 29.65 in 6.2 mi SSW 9.2 mph - N/A   Overcast
3:00 AM 44 °F - 42 °F 88% 29.68 in 12 mi SSW 9.2 mph - -   Partly Cloudy
3:50 AM 44.6 °F 39.7 °F 41.0 °F 87% 29.65 in - WSW 9.2 mph - N/A   Clear
4:00 AM 44 °F - 40 °F 82% 29.68 in 16 mi WSW 9.2 mph - -   Overcast
4:50 AM 42.8 °F 38.0 °F 39.2 °F 87% 29.68 in - West 8.1 mph - N/A   Clear
5:00 AM 43 °F - 39 °F 80% 29.69 in 16 mi West 8.1 mph - -   Mostly Cloudy
5:50 AM 42.8 °F 38.6 °F 39.2 °F 87% 29.68 in 6.2 mi WSW 6.9 mph - N/A   Overcast
6:00 AM 42 °F - 39 °F 84% 29.71 in 16 mi WSW 6.9 mph - -   Partly Cloudy
6:50 AM 42.8 °F 38.0 °F 39.2 °F 87% 29.71 in 6.2 mi WSW 8.1 mph - N/A Rain Light Rain Showers
7:00 AM 42 °F - 38 °F 82% 29.75 in 3 mi WSW 8.1 mph - - Rain Light Rain Showers
7:50 AM 41.0 °F 36.4 °F 37.4 °F 87% 29.74 in - SW 6.9 mph - N/A   Clear
8:00 AM 41 °F - 38 °F 83% 29.76 in 19 mi SW 6.9 mph - - Rain Light Rain Showers
8:50 AM 44.6 °F 38.8 °F 39.2 °F 81% 29.74 in 6.2 mi SW 11.5 mph - N/A   Partly Cloudy
9:00 AM 45 °F - 39 °F 71% 29.77 in 16 mi SW 11.5 mph - -   Partly Cloudy
9:50 AM 46.4 °F 39.8 °F 35.6 °F 66% 29.74 in 6.2 mi WSW 16.1 mph - N/A   Partly Cloudy
10:00 AM 47 °F - 35 °F 51% 29.78 in 15 mi WSW 16.1 mph - -   Scattered Clouds
10:50 AM 48.2 °F - 33.8 °F 58% 29.77 in 6.2 mi SW 17.3 mph - N/A   Scattered Clouds
11:00 AM 49 °F - 34 °F 43% 29.78 in 16 mi SW 17.3 mph - -   Partly Cloudy
11:50 AM 50.0 °F - 33.8 °F 54% 29.77 in 6.2 mi SW 13.8 mph - N/A   Scattered Clouds
12:00 PM 50 °F - 33 °F 40% 29.78 in 19 mi SW 13.8 mph - -   Partly Cloudy
12:50 PM 51.8 °F - 32.0 °F 47% 29.74 in 6.2 mi SSW 19.6 mph - N/A   Scattered Clouds
1:00 PM 51 °F - 32 °F 35% 29.77 in 19 mi SSW 19.6 mph - -   Partly Cloudy
1:50 PM 51.8 °F - 32.0 °F 47% 29.74 in 6.2 mi SSW 19.6 mph - N/A   Scattered Clouds
2:00 PM 52 °F - 33 °F 35% 29.75 in 19 mi SSW 19.6 mph - -   Partly Cloudy
2:50 PM 51.8 °F - 30.2 °F 44% 29.71 in 6.2 mi SSW 19.6 mph 31.1 mph N/A   Scattered Clouds
3:00 PM 52 °F - 30 °F 31% 29.74 in 19 mi SSW 19.6 mph - -   Partly Cloudy
3:50 PM 50.0 °F - 35.6 °F 58% 29.71 in 6.2 mi SSW 20.7 mph 32.2 mph N/A   Partly Cloudy
4:00 PM 49 °F - 36 °F 50% 29.73 in 19 mi SSW 20.7 mph - - Hail Light Hail Showers
4:50 PM 48.2 °F - 33.8 °F 58% 29.68 in 6.2 mi SSW 19.6 mph - N/A   Scattered Clouds
5:00 PM 48 °F - 34 °F 47% 29.70 in 19 mi SSW 19.6 mph - -   Partly Cloudy
5:05 PM 46.4 °F 39.0 °F 37.4 °F 71% 29.68 in 6.2 mi SSW 19.6 mph 32.2 mph N/A Rain Rain Showers
5:24 PM 42.8 °F 34.3 °F 39.2 °F 87% 29.68 in 6.2 mi SSW 19.6 mph 31.1 mph N/A   Partly Cloudy
5:50 PM 44.6 °F 38.1 °F 39.2 °F 81% 29.65 in 6.2 mi South 13.8 mph - N/A Rain Light Rain Showers
6:00 PM 44 °F - 38 °F 74% 29.69 in 19 mi South 13.8 mph - - Rain Light Rain Showers
6:50 PM 44.6 °F 36.9 °F 37.4 °F 76% 29.62 in 6.2 mi South 18.4 mph - N/A   Partly Cloudy
7:00 PM 45 °F - 37 °F 66% 29.66 in 19 mi South 18.4 mph - - Rain Light Rain Showers
7:50 PM 44.6 °F 36.9 °F 37.4 °F 76% 29.62 in 6.2 mi South 18.4 mph - N/A   Partly Cloudy
8:00 PM 45 °F - 38 °F 68% 29.64 in 19 mi South 18.4 mph - -   Scattered Clouds
8:50 PM 44.6 °F 36.9 °F 37.4 °F 76% 29.56 in 6.2 mi South 18.4 mph - N/A   Scattered Clouds
9:00 PM 45 °F - 37 °F 66% 29.60 in 19 mi South 18.4 mph - -   Partly Cloudy
9:50 PM 44.6 °F 36.9 °F 41.0 °F 87% 29.56 in 2.5 mi SSW 18.4 mph - N/A Rain Heavy Rain Showers
10:00 PM 44 °F - 41 °F 85% 29.58 in 2 mi SSW 18.4 mph - - Rain Heavy Rain Showers
10:50 PM 42.8 °F 34.3 °F 39.2 °F 87% 29.50 in 6.2 mi South 19.6 mph - N/A   Partly Cloudy
11:00 PM 42 °F - 39 °F 83%  in 28 mi South 19.6 mph - - Rain Light Rain Showers
11:50 PM 42.8 °F 32.9 °F 39.2 °F 87% 29.50 in 4.3 mi SSW 26.5 mph 39.1 mph N/A Rain Rain Showers